RH
6 5 5 6 5 5 6 5 8 9 10 11 10 14 19 16 20 34 41 43 49 48 39 34 33 31 30 27 22 27 36 36 31 30 29 26 25 27 26 25 28 28 24 20 15 13 15 14 9 7 8 8 8 9 11 11 12 17 18 17 19 22 22 24 28 32 29 21 20 23 21 17 17 19 18 16 15 14 12 11 11 11 11 9 9
8 9 7 6 6 6 5 5 6 6 8 10 10 11 13 12 14 22 32 39 45 47 43 40 41 32 24 29 30 30 38 41 37 37 38 31 26 29 29 26 28 27 24 20 15 13 13 11 10 9 7 6 7 8 10 9 10 13 16 19 23 25 27 27 27 30 29 21 18 21 19 15 16 18 15 13 12 11 11 11 11 10 9 9 10
16 13 11 7 7 7 6 6 6 5 7 7 9 10 10 13 13 13 21 27 30 41 45 45 54 50 31 26 29 31 37 37 31 34 40 39 33 29 30 33 34 29 23 19 18 20 17 13 14 15 11 8 8 11 14 13 10 9 10 11 13 14 17 18 19 22 24 18 14 15 15 12 12 13 11 10 10 10 10 10 9 9 9 9 10
28 15 13 11 8 8 6 6 6 6 7 6 8 9 7 11 12 11 17 21 26 40 44 40 51 57 44 30 23 27 33 33 27 26 31 40 41 32 31 37 38 34 30 23 20 23 20 16 16 17 15 11 10 15 18 13 12 16 19 16 13 13 12 11 13 15 15 13 10 9 10 9 9 9 9 9 9 9 9 9 9 9 8 9 9
39 20 18 16 11 10 8 8 8 6 7 7 7 7 7 9 9 9 15 19 25 33 35 38 46 49 50 45 33 27 28 27 25 21 21 31 40 36 31 34 36 32 26 21 21 22 20 18 20 21 18 13 9 11 11 10 19 27 24 16 15 16 11 7 10 10 8 8 7 7 8 8 8 9 8 9 9 9 9 8 9 8 7 8 8
48 28 24 19 14 16 12 9 10 7 7 7 6 7 7 6 8 10 11 14 24 33 33 34 36 36 46 54 45 34 30 24 19 17 15 20 34 40 35 35 39 34 27 25 23 20 19 18 17 17 17 14 11 9 8 12 20 19 12 9 11 13 9 6 7 7 7 8 8 8 8 8 8 9 8 9 9 9 10 9 8 7 7 6 6
56 36 33 24 19 31 34 21 12 10 9 8 7 7 7 7 7 9 10 12 18 28 36 39 38 34 37 46 47 40 35 30 22 17 15 15 23 30 32 38 42 37 35 34 27 23 22 19 20 19 15 13 12 10 9 11 12 10 8 9 9 9 8 7 8 7 8 8 8 8 8 7 8 8 8 9 9 8 8 8 7 7 6 6 5
57 38 40 32 25 44 54 35 18 15 15 12 9 6 6 8 7 6 11 13 10 13 28 46 51 40 28 32 40 40 37 34 27 21 16 13 15 17 23 32 35 34 38 38 34 35 32 28 28 25 17 13 12 11 10 9 9 9 9 8 8 8 8 8 8 8 8 8 8 8 7 7 6 6 6 6 6 7 7 6 7 7 6 5 4
64 44 42 39 37 51 54 36 25 25 22 19 17 13 11 10 7 7 9 10 10 8 16 38 50 40 28 26 29 37 43 38 31 29 26 19 14 13 15 21 27 36 40 33 28 33 38 34 24 20 24 22 13 10 10 9 9 9 8 9 9 8 8 8 8 8 7 7 7 6 6 5 5 5 5 4 4 4 4 4 5 5 6 6 4
74 53 45 44 43 46 43 34 32 35 32 30 29 29 30 25 17 14 11 8 10 8 19 48 56 37 30 34 29 28 35 39 38 37 36 34 27 17 12 13 22 32 36 34 30 26 29 27 17 23 39 32 13 9 10 8 8 9 8 9 9 8 9 8 7 7 7 6 6 5 5 4 4 3 3 2 3 3 3 3 4 3 4 5 4
82 63 51 50 49 46 42 38 38 41 43 47 51 51 51 49 41 34 28 26 25 22 35 60 63 47 40 38 32 27 23 29 39 42 43 44 36 22 13 12 17 21 24 35 41 35 29 25 17 18 23 14 4 5 6 6 7 6 6 6 6 6 6 6 6 6 5 4 4 4 3 3 3 3 2 2 2 2 2 3 3 3 3 4 4
90 75 60 53 52 53 54 51 46 46 49 56 66 71 68 65 63 59 54 57 61 61 62 64 67 74 63 33 29 51 51 30 24 36 47 47 41 36 23 12 13 15 13 18 29 41 47 38 20 9 8 14 18 13 7 7 7 5 6 6 5 4 4 4 4 3 3 4 3 3 3 3 2 2 2 2 2 2 3 3 3 4 5 6 6
82 83 75 66 59 56 58 59 55 56 61 64 72 80 80 77 78 78 76 79 87 90 88 82 81 90 85 56 49 74 82 58 36 34 34 34 49 57 34 10 10 13 12 11 13 23 32 26 15 9 11 21 25 16 10 9 6 8 11 8 6 5 3 3 3 3 3 3 2 3 3 2 3 3 3 3 3 3 3 4 4 4 5 6 6
65 72 75 75 75 72 71 71 66 65 71 77 80 85 88 86 89 92 92 93 97 96 94 96 96 95 98 94 84 80 84 82 72 56 38 39 60 58 26 8 11 10 10 12 10 10 12 10 12 13 13 16 14 9 8 6 4 7 8 6 6 5 4 4 4 3 5 6 9 11 9 6 5 4 3 4 4 4 4 4 5 5 5 5 5
53 63 68 73 81 88 90 89 87 83 83 87 91 94 95 94 94 97 96 97 101 99 95 96 99 97 96 99 98 93 90 89 86 75 61 60 60 41 17 11 12 9 10 11 9 10 9 8 9 9 10 13 13 11 12 11 9 8 6 6 7 6 6 7 5 4 7 9 11 11 9 7 5 5 6 5 3 4 5 5 5 5 5 7 7
47 59 71 78 82 88 90 90 94 96 93 91 92 94 97 99 97 96 96 96 98 100 96 91 90 89 86 85 90 98 99 96 93 89 80 70 56 37 26 23 16 11 11 9 8 9 8 9 10 9 9 10 9 11 13 12 12 11 10 10 9 8 8 8 7 8 7 6 8 8 8 8 6 5 5 6 10 12 8 7 11 12 12 12 12
41 46 62 80 85 83 83 85 90 92 89 86 86 91 97 100 99 98 95 93 97 99 96 88 83 78 76 79 85 93 98 99 98 98 94 87 73 52 37 33 32 25 16 10 10 10 8 8 8 8 9 8 10 15 14 10 11 12 12 11 11 11 11 10 10 10 8 8 9 10 17 25 25 19 19 28 40 37 22 17 23 23 19 18 16
37 33 40 56 68 70 71 76 82 83 85 86 88 93 97 96 96 96 91 89 97 98 90 84 81 78 79 87 92 95 99 99 98 99 100 99 94 78 54 40 38 35 27 18 11 8 9 9 8 9 10 7 10 18 22 23 20 14 11 12 12 10 10 11 12 12 12 13 12 12 21 30 33 32 37 47 50 38 22 16 19 20 20 22 22
35 28 23 28 39 47 50 54 60 69 80 85 84 86 89 90 92 91 86 86 90 89 86 84 82 82 88 96 99 99 100 99 99 100 100 99 100 95 81 63 48 39 38 34 22 11 9 9 8 8 8 8 13 25 40 47 39 22 13 12 13 12 9 9 10 11 13 12 10 13 20 26 34 39 40 37 30 24 21 19 21 28 33 35 37
33 27 22 18 18 27 40 51 55 59 70 78 80 80 80 82 85 83 80 80 78 78 81 80 79 83 89 93 95 97 99 99 99 100 99 99 100 98 96 91 76 59 53 55 47 28 15 14 15 11 9 20 38 53 61 63 55 39 25 18 18 18 14 12 9 8 9 9 7 8 10 15 25 30 26 21 21 29 37 37 39 48 53 53 55
31 26 23 19 15 18 36 57 64 59 59 65 73 76 74 74 75 71 68 69 69 69 70 69 71 79 87 90 93 98 101 100 99 100 99 98 99 99 99 100 97 87 76 77 75 54 27 18 22 21 19 31 54 69 71 68 63 53 41 31 28 26 23 23 22 14 10 8 7 7 7 7 10 11 11 13 21 35 50 57 59 62 65 67 69
26 22 19 20 17 15 27 48 60 61 58 58 61 61 61 65 69 66 62 60 61 59 59 61 66 73 85 94 96 97 99 99 99 100 97 92 91 94 95 94 98 100 94 91 92 80 55 36 28 25 22 27 42 56 63 66 62 55 48 38 29 26 27 30 30 27 25 23 18 13 11 9 8 8 12 17 24 35 50 61 68 70 70 73 75
19 18 21 25 23 21 33 48 54 56 59 61 60 58 56 58 63 66 63 59 56 53 51 52 53 59 77 94 96 93 96 99 100 95 85 78 79 84 86 84 85 92 95 97 99 98 89 74 57 41 30 24 24 30 46 65 68 63 60 50 32 25 31 34 34 33 33 34 34 31 25 19 13 11 13 19 31 43 53 62 70 74 73 74 76
15 20 27 33 28 27 42 53 46 43 53 60 62 65 68 65 62 63 63 60 57 53 51 50 47 48 58 71 81 88 91 89 85 74 62 64 74 80 81 76 73 75 80 86 92 97 100 98 91 81 71 60 46 35 46 72 80 70 66 59 39 24 26 36 45 47 42 36 35 38 38 34 32 30 24 21 31 48 60 67 72 72 71 72 73
15 15 19 25 25 27 41 47 35 32 48 59 61 66 73 71 64 62 63 63 60 56 53 52 51 48 47 48 55 64 65 62 61 59 57 66 77 81 78 71 66 65 64 64 69 77 86 92 94 95 95 93 84 69 66 77 78 63 48 41 30 18 18 32 50 61 63 56 46 42 45 49 53 55 51 45 47 56 65 72 73 68 63 63 64
35 21 9 8 14 24 40 48 40 41 56 64 62 66 71 71 69 68 66 65 63 61 57 53 51 49 47 45 43 45 46 48 54 62 70 76 79 77 72 63 56 56 56 54 52 55 64 77 85 90 94 97 99 95 89 85 77 57 36 24 22 24 35 52 64 72 79 80 73 67 69 72 73 73 72 69 66 66 71 77 75 66 59 60 61
56 43 26 18 19 18 24 37 48 57 64 62 62 68 72 71 71 70 69 66 64 61 57 53 50 48 47 46 45 45 47 48 52 58 63 63 60 58 55 51 50 50 51 53 51 47 48 57 68 79 89 92 93 97 98 96 90 78 63 56 58 63 73 84 89 89 91 92 89 87 87 87 86 83 80 77 75 77 83 83 76 68 63 64 63
61 54 44 44 45 30 18 29 49 59 59 61 67 71 71 71 71 69 68 67 63 60 58 55 53 51 50 49 49 49 48 46 46 47 46 42 40 40 41 45 49 51 50 48 46 43 41 43 48 57 67 73 75 77 81 85 88 87 83 82 84 85 88 93 97 99 101 100 98 96 95 94 94 92 89 86 85 88 89 83 75 69 63 61 57
72 70 59 54 53 43 35 44 57 58 55 65 76 75 69 71 75 74 71 68 63 61 61 59 58 57 56 55 53 52 50 47 44 42 40 37 37 37 39 43 47 51 52 49 44 42 41 40 41 42 46 51 53 55 59 62 64 63 62 61 62 61 64 70 76 81 87 91 94 96 96 95 92 89 86 83 81 81 80 75 69 61 50 42 38
82 87 77 61 53 52 54 57 60 59 60 70 82 84 79 78 79 77 73 69 66 66 66 65 65 65 63 61 58 56 52 49 45 42 39 38 39 39 41 45 47 50 53 52 49 47 44 42 41 40 40 39 39 39 41 43 44 44 43 43 44 44 44 47 49 51 53 56 60 65 67 67 66 65 63 60 56 54 52 49 43 36 27 22 20
86 88 82 69 62 65 68 60 48 46 52 62 75 85 89 89 87 82 76 71 70 72 72 71 71 70 69 66 63 60 56 51 47 44 41 40 40 42 43 46 47 49 52 53 53 52 50 48 47 45 43 42 41 39 38 36 35 36 35 35 36 37 38 39 40 40 40 37 36 35 34 33 33 33 31 30 28 26 24 22 19 16 14 12 11
91 92 88 76 65 69 78 73 57 45 45 54 69 83 91 92 91 86 80 77 77 77 78 78 76 75 75 72 68 63 58 53 49 47 45 44 44 44 44 45 46 46 47 49 50 50 50 50 50 49 48 47 45 44 44 42 41 40 38 37 36 35 35 35 35 36 36 35 32 30 27 23 21 19 18 17 16 15 14 13 13 13 12 12 11
86 94 98 92 79 74 79 84 84 77 69 69 80 90 93 92 91 89 87 86 86 85 85 83 82 80 79 77 73 68 62 56 53 51 50 48 48 47 46 45 44 43 42 41 40 40 41 41 41 42 43 42 41 40 39 39 40 40 40 40 39 39 39 38 37 36 36 35 34 33 31 28 26 24 23 22 20 19 18 17 16 16 15 14 14
70 80 91 96 94 88 83 84 89 91 86 83 89 94 95 95 95 94 92 91 92 91 89 85 83 83 81 80 78 74 68 62 57 54 53 52 52 51 49 46 44 42 40 39 37 36 35 34 34 34 34 34 34 34 33 33 33 33 33 34 35 36 37 37 37 38 38 38 37 36 35 34 33 31 29 28 26 25 24 23 22 21 19 18 18
66 69 75 82 85 85 83 82 82 82 81 80 79 81 85 90 94 95 93 92 91 91 88 84 80 78 77 77 78 78 75 70 64 60 58 57 56 55 54 52 49 47 45 44 43 42 41 40 39 37 35 34 32 31 30 29 28 27 28 28 28 29 30 31 32 33 35 35 35 35 34 34 34 33 33 32 30 29 27 26 25 24 22 22 20
71 68 70 76 81 85 88 88 85 86 88 85 77 71 71 74 80 85 89 91 90 88 86 82 80 77 74 73 77 79 78 75 72 68 65 64 62 60 59 57 56 55 54 53 52 51 50 50 49 48 45 42 40 37 33 30 27 25 24 22 22 23 24 24 25 27 28 29 29 29 29 29 30 30 30 30 30 30 29 29 28 27 25 24 23
88 83 78 77 80 85 90 91 89 90 94 93 89 84 77 73 72 73 78 83 86 85 83 81 82 80 75 75 78 78 74 72 73 73 72 70 68 65 62 61 61 61 62 61 61 60 59 57 56 55 53 51 49 47 43 38 33 28 25 22 21 20 20 20 20 21 22 23 23 23 23 23 23 23 22 22 23 23 23 23 24 23 23 23 23
96 97 96 93 90 87 87 88 89 91 92 93 95 96 91 86 81 77 77 82 86 85 83 84 86 85 84 86 87 81 71 66 67 71 73 74 73 69 67 66 65 65 65 65 65 66 65 62 59 56 54 54 53 52 50 47 41 35 31 27 24 22 21 20 19 19 19 19 19 18 18 17 17 17 17 17 17 17 17 17 17 17 17 17 17
100 98 98 99 99 98 95 94 95 98 98 98 99 99 98 96 94 91 89 91 94 95 94 94 93 93 95 98 98 93 85 76 69 68 69 72 75 76 77 76 73 70 68 69 70 71 70 68 65 61 59 59 59 56 52 47 41 35 31 28 25 24 22 20 19 19 18 17 17 16 16 16 16 16 16 16 16 16 16 16 16 16 16 15 15
95 99 100 99 98 99 99 98 98 99 100 100 100 100 99 99 100 100 99 98 99 100 100 99 99 99 99 100 100 100 98 93 86 80 77 76 80 86 88 85 81 77 75 76 78 78 76 75 72 70 70 69 65 58 52 45 38 32 29 27 25 24 23 22 21 19 18 18 17 17 17 17 17 16 16 16 16 15 16 16 15 15 15 15 15
63 75 88 96 98 98 97 97 98 97 96 96 96 97 99 98 96 96 97 97 97 97 96 97 98 99 99 100 101 101 101 100 98 94 90 88 91 95 95 90 84 80 77 77 78 80 79 78 75 73 71 65 57 49 43 39 35 31 29 27 26 25 24 23 22 20 19 19 18 17 17 17 16 16 16 15 15 15 14 14 13 13 13 13 13
39 44 54 68 80 87 89 90 92 93 93 93 90 88 88 88 87 85 83 83 83 82 82 82 82 81 84 91 97 97 95 96 97 96 95 95 94 91 86 80 74 69 66 66 67 67 67 66 64 61 58 52 45 39 35 33 31 29 27 25 24 23 21 20 19 18 17 16 15 15 15 14 14 14 14 14 14 14 13 13 12 12 12 12 11
38 36 37 41 50 60 68 71 74 77 80 84 87 88 86 83 81 79 77 75 73 72 71 72 70 68 73 85 91 87 81 80 83 84 86 86 83 78 72 67 62 60 58 56 55 54 53 52 51 49 46 44 40 37 34 31 28 26 25 23 22 21 20 19 18 17 16 16 15 15 14 14 13 13 13 13 13 12 12 12 12 11 11 11 11
63 54 48 45 44 47 52 54 55 57 59 61 67 74 80 82 81 79 77 76 75 72 69 69 68 65 68 77 81 78 73 71 71 71 71 70 68 65 61 58 55 53 52 49 48 47 45 44 44 42 41 40 38 36 35 33 31 30 28 26 24 23 21 20 19 18 17 16 15 15 14 14 14 13 13 13 12 12 12 12 12 11 11 11 10
67 62 64 67 63 58 56 55 52 50 50 49 49 51 59 67 74 75 74 73 71 68 65 63 62 60 60 62 65 64 63 62 60 58 57 55 53 51 49 46 43 42 41 39 37 36 34 34 34 33 32 32 31 30 29 28 27 26 25 23 21 20 18 17 16 15 14 14 13 13 12 12 11 11 11 11 11 11 11 11 11 11 11 11 10
47 46 58 75 80 73 68 67 62 54 49 46 43 41 42 46 52 57 59 59 57 55 52 49 48 47 48 49 50 51 50 49 49 48 46 44 42 40 38 36 34 32 32 30 29 27 26 25 24 24 23 23 22 22 21 20 18 17 16 15 15 14 13 12 11 11 11 10 9 9 8 8 8 8 8 8 8 8 8 8 8 8 8 8 8
49 41 44 65 85 91 87 82 76 69 62 54 46 40 38 36 36 38 41 42 40 39 38 37 35 34 33 32 33 34 35 35 36 37 36 36 35 33 31 30 28 25 24 23 22 21 20 19 19 18 18 17 17 16 15 14 13 13 12 11 11 10 9 9 8 8 7 7 6 6 6 6 6 6 6 6 7 7 6 6 7 6 6 7 7
52 43 34 40 61 81 92 96 94 90 84 76 63 52 45 41 37 34 35 36 35 33 32 33 31 29 27 25 24 23 23 23 23 23 23 23 23 23 23 23 22 20 19 18 17 16 16 15 15 15 14 14 13 13 12 11 10 10 9 9 8 8 8 8 7 7 7 7 7 7 7 7 7 7 7 7 7 7 7 8 8 8 8 8 8
54 46 35 28 29 40 58 78 93 101 101 96 88 78 69 64 59 53 47 43 41 39 39 38 36 32 30 29 27 25 24 23 22 21 20 18 17 17 16 16 15 15 15 14 14 13 13 12 12 12 12 11 11 10 10 10 10 10 10 10 11 11 11 10 10 10 9 9 9 10 10 10 10 10 10 10 11 11 11 11 10 10 10 9 9
62 57 50 41 34 31 33 44 61 77 87 93 96 95 92 89 86 81 73 66 60 57 55 51 48 46 44 41 37 34 32 29 28 28 27 25 24 23 21 20 19 18 17 16 15 15 15 14 14 14 14 13 14 14 13 13 13 14 15 15 15 14 14 13 13 13 13 13 13 13 13 14 14 14 15 15 14 13 13 12 11 11 10 10 9
48 51 50 45 41 38 34 32 37 45 55 64 74 83 89 91 91 89 85 80 76 72 68 63 59 56 52 46 40 35 31 28 27 27 29 30 31 31 30 29 28 26 24 23 22 21 21 21 21 20 20 20 20 19 18 17 17 18 18 17 17 17 17 16 16 16 17 17 17 17 17 17 16 16 15 14 13 12 11 10 10 9 8 8 8
Wind_Speed
22 22 22 22 20 19 18 16 15 15 14 14 14 14 13 12 11 10 9 9 9 8 7 6 6 6 5 4 4 4 4 5 5 4 4 4 4 4 4 5 4 4 5 5 5 5 5 6 6 6 6 6 7 7 6 6 7 6 6 6 5 6 7 8 9 9 8 9 10 10 9 9 8 8 7 7 7 7 8 10 12 14 16 17 17
21 21 22 22 21 20 20 19 17 16 16 16 15 15 14 13 13 12 12 11 11 10 9 8 8 7 6 6 5 5 5 5 6 6 5 5 5 5 5 5 5 4 5 5 6 6 6 6 6 6 6 6 6 6 6 6 6 6 6 6 4 5 6 7 7 8 8 8 8 8 8 8 8 7 7 7 8 9 10 12 13 15 16 16 15
19 19 20 21 21 21 21 21 20 19 18 18 17 16 15 15 15 14 13 13 12 11 11 10 10 9 8 8 7 7 7 7 7 6 7 7 7 7 6 5 5 4 4 5 5 6 6 6 6 6 6 6 6 6 7 7 7 6 6 6 5 5 6 6 6 7 7 6 7 7 7 8 7 7 8 8 9 10 12 14 15 16 16 15 13
17 18 19 20 20 21 22 22 22 21 20 20 19 19 18 17 17 16 15 14 13 13 12 12 11 11 11 10 9 9 9 9 8 8 8 8 8 8 7 7 6 5 5 5 5 6 6 5 5 5 6 6 5 5 6 7 6 5 5 6 6 6 6 6 6 6 6 6 6 7 8 9 9 9 9 10 11 13 14 16 17 17 16 15 12
18 18 19 20 20 21 22 22 22 22 21 21 21 21 20 19 18 18 16 15 15 15 14 14 14 14 14 12 11 12 11 11 10 9 10 10 9 10 9 9 9 8 7 7 7 6 6 5 5 6 6 6 5 4 4 5 5 5 5 5 6 5 5 6 6 6 6 7 7 8 8 10 10 11 11 12 13 15 16 18 18 18 17 16 13
21 20 20 20 20 21 22 22 22 22 22 22 23 22 22 21 20 19 18 17 17 17 16 16 17 16 15 15 14 13 13 13 13 12 12 11 11 11 12 11 11 10 10 9 9 9 8 8 7 7 7 7 6 5 4 4 4 5 5 5 5 6 5 6 6 6 7 7 8 9 10 11 11 12 13 14 15 16 17 18 18 18 17 17 14
24 23 22 21 20 22 23 23 22 23 22 23 23 23 23 22 21 20 20 19 19 19 18 19 19 18 17 17 16 15 15 15 15 14 14 13 13 13 13 13 13 12 12 11 11 11 10 10 10 9 9 9 8 7 6 6 6 6 6 6 7 7 7 7 7 8 8 9 11 12 12 13 13 13 14 14 15 15 16 17 17 17 17 16 15
28 27 25 23 22 24 24 24 23 23 23 23 23 23 23 22 22 21 21 21 21 21 20 20 21 20 19 19 18 18 18 17 17 16 16 16 16 16 15 15 15 14 14 13 13 13 13 13 13 12 12 11 10 9 9 9 9 9 9 9 9 9 9 9 10 10 11 13 13 14 15 15 14 14 14 14 13 14 14 15 16 16 17 18 17
32 30 27 25 24 25 25 25 24 23 24 23 22 23 23 23 22 22 22 22 21 22 22 22 22 21 21 21 20 20 19 19 19 19 18 18 19 18 17 17 17 17 16 16 16 16 15 15 15 14 13 13 13 12 12 12 12 12 12 11 12 12 12 13 13 13 14 15 15 16 16 16 15 14 14 13 13 13 14 15 15 15 16 18 20
35 32 29 28 27 27 27 26 26 25 25 24 24 23 22 22 22 22 21 21 21 21 21 21 22 22 22 22 22 22 21 21 21 21 20 21 21 20 20 19 19 19 18 18 18 18 18 18 17 15 14 15 15 15 15 15 15 15 15 15 15 15 15 16 16 16 16 16 16 16 16 16 16 15 15 14 14 14 15 15 16 16 16 17 20
33 32 30 29 29 29 29 28 28 28 27 25 25 24 23 23 22 22 22 22 22 21 20 20 22 24 24 25 25 24 24 24 24 23 23 23 23 22 22 21 22 22 21 20 19 19 19 19 19 18 17 17 17 17 17 17 17 17 17 17 17 17 18 18 18 18 18 17 17 17 17 17 17 17 17 16 15 15 16 16 17 17 17 17 18
29 32 32 32 31 31 31 31 31 31 29 27 26 25 24 24 23 23 24 23 23 22 22 23 25 25 26 28 28 27 27 27 27 27 27 26 25 24 23 23 23 24 24 23 22 21 21 21 21 20 19 18 18 18 18 18 18 18 19 19 19 19 19 19 20 20 19 19 19 19 19 18 18 19 18 18 17 17 17 18 18 18 18 17 17
23 28 32 34 34 34 33 33 33 33 31 30 30 28 27 26 25 25 26 25 25 25 25 26 26 27 29 30 31 30 30 29 29 30 30 29 27 26 25 25 25 25 25 25 25 25 24 24 24 22 21 20 20 20 20 19 19 19 20 20 21 21 21 21 21 21 20 20 20 21 21 20 21 21 21 19 19 19 19 19 20 19 19 19 19
19 22 25 28 31 34 35 35 36 36 34 33 33 31 29 28 28 29 30 29 29 30 30 29 28 29 30 31 32 33 32 31 32 32 31 30 30 28 26 26 26 26 26 27 27 27 27 27 26 24 24 23 22 21 21 21 21 21 21 20 21 22 23 23 23 22 21 20 21 22 23 23 23 23 23 22 21 20 20 20 21 21 20 20 22
17 18 19 21 24 27 31 34 36 37 36 35 35 34 33 32 32 33 34 33 33 33 32 31 30 31 31 32 33 33 33 34 34 33 32 31 31 30 28 28 28 28 29 29 29 29 28 28 26 26 26 25 24 23 23 23 23 22 22 21 22 23 24 25 24 24 23 22 22 23 25 26 25 25 25 25 24 22 21 21 22 22 21 21 23
18 18 18 19 19 21 23 26 29 31 32 33 35 37 38 38 38 38 37 37 37 35 33 31 31 31 32 33 33 32 34 35 34 32 32 33 34 34 32 30 30 30 31 31 31 30 28 27 26 27 27 27 25 25 25 25 24 24 23 23 23 24 25 25 25 25 25 25 24 24 26 27 27 27 27 28 27 25 23 22 23 23 21 21 22
22 21 20 20 20 20 20 21 23 25 27 29 30 32 36 38 39 38 38 39 39 36 32 30 30 30 31 31 30 31 33 35 33 32 33 34 35 37 36 34 33 32 32 32 32 31 30 28 28 28 28 27 27 27 26 25 25 25 25 25 25 25 25 26 26 26 26 26 25 25 26 27 27 28 28 29 28 27 25 24 24 24 23 23 22
25 24 23 23 23 23 22 21 21 22 24 25 24 24 27 30 31 30 30 30 31 31 29 28 28 29 29 30 29 29 29 31 32 33 35 35 37 38 38 36 35 33 33 33 33 33 32 31 30 29 29 29 29 28 27 25 25 26 26 25 25 25 26 27 27 28 27 27 26 26 26 27 27 28 29 29 29 29 28 26 25 26 25 25 25
26 24 24 24 25 25 25 24 24 24 24 24 23 23 24 25 24 24 23 23 23 23 24 23 24 26 28 31 34 35 34 32 32 33 34 35 36 36 36 37 37 35 34 34 33 34 35 34 32 32 31 30 30 30 28 26 26 27 28 27 26 26 27 27 28 28 28 29 28 28 27 27 27 28 29 30 31 32 31 29 28 28 27 27 28
28 26 26 26 26 26 25 25 25 26 26 25 24 24 25 25 24 23 23 23 22 22 22 22 22 23 25 28 32 36 38 36 34 34 34 34 35 35 34 34 36 36 36 35 34 34 34 35 35 34 34 32 31 31 30 28 27 27 28 28 27 28 28 28 29 29 29 30 30 30 29 28 28 28 29 30 31 32 33 33 33 32 30 29 30
31 30 29 29 28 27 26 25 25 25 26 26 25 24 25 25 24 23 23 22 22 23 24 24 24 23 24 26 27 29 33 32 30 29 28 29 32 34 35 36 36 35 36 36 34 33 34 35 35 35 35 34 33 32 32 31 30 29 30 30 29 29 29 29 29 30 30 31 32 32 32 31 31 31 30 30 31 32 33 34 35 35 33 31 30
33 32 32 31 29 28 28 28 27 27 27 27 27 28 28 27 25 24 24 23 23 23 24 24 24 23 24 24 23 23 26 25 21 18 17 18 19 21 25 29 32 34 35 35 34 33 34 35 36 36 36 36 36 35 34 34 34 33 32 32 32 32 31 31 31 31 31 32 33 33 34 34 34 33 32 31 32 33 33 34 36 36 36 34 32
34 33 33 32 31 30 31 31 29 29 30 29 29 30 30 30 29 28 27 26 26 26 25 26 25 24 23 22 21 21 23 22 19 19 21 22 20 19 19 20 22 25 29 32 34 34 33 34 36 37 39 39 39 39 38 38 38 36 35 34 34 33 33 33 33 33 33 34 34 34 35 36 36 35 34 33 33 34 34 34 36 37 36 36 35
36 35 34 34 33 32 32 33 32 31 31 31 31 31 31 31 32 32 31 30 29 28 28 28 27 27 26 25 24 24 24 23 24 26 26 25 24 23 22 21 19 18 20 23 27 30 32 33 34 36 39 41 42 42 40 38 37 36 36 36 35 35 35 35 35 36 36 37 37 37 37 37 37 36 36 35 35 34 34 35 36 36 36 35 34
38 37 37 37 36 35 35 34 34 34 33 33 33 33 33 34 34 34 33 32 31 30 30 30 30 30 29 29 29 30 28 26 28 28 26 24 24 24 24 23 22 22 23 23 23 24 27 29 31 33 36 38 39 41 41 40 40 39 39 38 38 38 38 38 38 38 38 38 39 39 39 39 38 37 36 36 35 35 35 35 36 35 34 33 33
38 38 39 39 38 37 37 37 36 35 34 34 35 35 36 36 35 34 33 32 32 31 31 31 31 31 31 31 31 32 30 28 27 26 25 25 26 25 25 25 25 26 26 26 25 24 24 25 26 27 29 31 34 35 37 40 42 42 41 40 40 41 40 40 40 39 39 39 40 40 41 40 39 38 37 36 36 36 36 37 36 34 33 33 33
40 40 39 39 39 39 39 38 38 36 35 36 37 37 37 37 36 35 34 33 33 32 32 32 32 32 32 31 30 30 30 29 29 28 27 27 28 28 28 27 26 25 25 25 26 26 26 25 24 23 24 25 27 28 30 32 35 37 39 39 40 41 41 41 41 40 40 40 40 40 39 39 38 38 39 39 39 38 38 37 36 35 35 35 34
44 43 41 38 39 41 40 39 39 38 37 38 39 39 39 38 37 36 35 34 33 33 32 33 33 33 32 32 31 31 31 32 31 30 30 30 30 29 28 27 25 24 24 25 26 26 27 26 25 25 24 24 25 26 26 26 27 30 31 31 32 33 34 34 35 36 37 40 40 40 40 40 40 40 40 40 39 39 39 38 37 37 37 37 36
46 45 44 42 41 41 42 41 41 41 39 39 39 39 39 39 38 37 36 35 34 34 34 34 34 33 33 33 33 33 33 33 32 31 31 30 30 29 28 27 26 25 24 25 26 26 26 26 26 25 25 26 28 29 28 28 28 29 29 29 29 30 29 28 29 30 32 35 36 36 37 38 39 39 38 38 38 39 39 40 40 39 39 39 38
49 45 43 43 42 43 43 43 43 43 44 44 43 41 40 41 41 39 38 36 36 35 35 35 34 34 34 34 34 33 33 33 33 32 31 31 30 29 28 28 27 27 27 27 27 27 26 26 26 26 26 27 29 30 30 30 31 30 31 32 33 33 31 30 30 31 32 33 33 34 35 36 37 37 38 39 40 40 41 41 42 42 41 41 41
51 51 46 43 44 44 45 45 45 46 46 46 46 45 44 43 43 41 40 39 38 37 37 36 35 34 34 34 35 34 34 34 34 33 32 31 31 30 30 29 29 29 29 29 29 29 28 28 28 29 28 29 30 31 31 32 32 32 32 33 35 35 34 32 33 34 35 36 36 36 37 38 38 39 41 42 42 42 43 44 44 44 43 43 42
45 48 47 46 46 46 45 45 46 48 48 47 46 46 45 44 43 42 42 41 40 40 39 38 37 36 35 36 36 36 35 35 35 35 34 33 33 32 32 32 31 30 30 30 30 30 30 31 31 31 31 32 32 33 34 34 34 34 35 36 37 37 36 35 36 37 38 38 39 40 40 40 41 41 42 43 43 43 44 44 45 45 45 45 45
42 41 42 44 45 46 46 45 43 44 45 45 45 45 44 44 44 44 44 43 42 41 41 40 39 38 37 37 38 38 38 37 37 37 36 36 36 35 34 34 33 32 32 32 32 32 32 33 34 34 35 35 36 36 37 37 37 38 38 38 39 39 39 39 40 40 40 41 42 43 43 43 44 44 45 45 45 45 46 46 46 47 46 46 46
45 43 41 43 45 46 46 46 45 43 43 44 44 44 45 45 45 45 45 45 44 43 43 41 41 40 40 39 39 39 40 40 39 39 39 39 39 38 38 37 37 36 35 35 35 35 36 36 37 37 38 39 39 40 40 41 41 42 42 42 42 42 42 43 43 43 43 44 45 45 46 46 46 47 47 48 48 48 48 48 48 48 48 48 48
45 44 43 44 46 48 49 50 50 48 47 47 48 48 47 47 47 47 47 47 47 46 45 44 43 43 43 41 41 42 42 42 42 41 41 41 42 42 42 42 41 41 40 40 39 39 39 40 40 40 40 41 42 42 43 44 44 45 45 45 45 46 46 46 46 46 46 46 47 48 48 49 49 49 50 50 51 51 51 51 51 51 51 51 51
44 46 46 46 47 49 50 51 51 51 51 52 52 52 52 51 50 50 50 50 50 50 48 47 47 47 46 44 45 45 45 45 45 44 44 44 44 45 45 45 45 45 45 44 43 43 43 43 43 43 44 45 45 46 46 47 47 48 48 48 48 48 49 49 49 49 49 49 49 49 50 50 51 51 52 53 53 53 53 53 54 54 54 54 54
43 45 47 49 50 50 50 50 49 49 49 51 53 53 54 54 54 54 53 53 53 53 52 51 51 51 49 48 50 50 49 49 49 48 48 48 48 47 47 47 47 48 47 47 46 47 47 47 48 48 49 49 49 49 49 50 51 51 51 50 50 50 50 51 51 51 51 51 51 51 51 52 52 53 53 54 54 55 55 56 56 57 57 57 57
43 45 46 48 50 52 52 52 51 49 49 49 50 52 53 54 55 56 56 56 56 56 56 55 54 53 52 52 54 55 54 53 53 52 51 51 51 50 50 50 50 50 50 50 51 51 52 52 52 52 51 51 51 50 51 51 52 52 52 53 53 53 53 53 53 53 53 53 53 53 54 55 55 56 56 56 57 57 57 58 59 59 60 60 60
42 43 45 48 50 52 53 53 53 53 52 52 52 52 53 54 55 56 57 57 57 58 58 57 57 56 55 55 56 57 57 56 56 55 55 54 53 53 52 52 53 52 53 53 54 54 54 54 54 54 53 53 53 52 52 52 52 52 52 53 53 54 55 56 56 57 57 57 57 57 58 58 58 59 60 60 60 60 61 61 62 62 63 63 63
47 45 43 44 46 50 52 53 53 54 55 55 55 54 54 54 55 56 57 57 58 59 59 59 58 58 58 58 58 58 58 58 57 57 57 56 55 55 55 55 55 55 55 55 56 56 57 57 57 56 56 55 55 54 54 53 53 53 53 53 53 53 53 54 55 56 57 58 59 60 60 60 61 61 62 62 63 63 63 64 64 65 66 66 66
56 54 50 47 45 45 46 47 49 51 53 55 56 57 56 56 56 56 56 56 56 57 57 57 57 57 56 57 58 59 59 59 59 59 59 58 57 56 56 56 56 55 55 55 55 56 56 56 56 56 56 55 55 54 54 54 54 54 54 54 54 54 54 55 55 56 56 57 59 60 61 61 62 62 63 64 65 65 66 66 67 68 69 70 70
56 57 56 55 53 50 47 45 44 45 47 49 51 54 55 55 55 54 54 54 54 54 54 54 54 53 52 53 54 55 56 57 58 59 58 58 56 55 54 54 54 53 53 53 53 53 54 54 54 55 55 55 55 55 55 55 55 55 56 56 57 57 57 58 58 59 59 60 61 62 63 63 63 64 64 65 65 67 68 69 70 71 72 73 73
53 54 54 54 55 56 55 52 50 48 47 47 48 49 50 50 50 50 49 49 49 49 49 50 50 50 49 50 52 52 52 52 53 53 54 54 54 53 53 52 51 52 52 52 52 53 54 54 54 55 55 56 56 57 57 57 58 58 58 59 59 60 60 60 61 61 62 62 63 64 65 65 65 65 66 66 67 68 69 71 72 73 74 75 75
49 50 51 50 51 52 53 54 54 53 52 52 51 51 51 50 50 49 48 46 45 45 45 45 46 47 47 48 49 50 50 50 51 51 51 52 52 51 51 51 51 53 54 54 54 54 55 56 56 57 57 58 59 59 60 60 61 61 61 61 61 61 61 62 62 63 63 63 64 65 65 66 66 66 67 67 68 69 70 71 72 73 74 75 75
50 49 48 47 47 46 46 48 50 52 53 53 54 53 53 53 53 52 51 49 48 46 45 45 45 45 46 46 47 48 49 50 50 51 51 51 50 50 51 52 53 54 55 55 55 55 56 56 57 57 58 58 59 60 60 60 60 60 60 60 61 61 62 63 63 64 64 65 65 66 67 67 68 68 68 68 69 69 70 71 72 72 73 74 75
54 52 50 48 46 44 43 44 46 48 50 51 52 53 53 53 53 53 52 51 50 49 48 47 46 46 46 46 47 49 50 50 50 51 51 51 51 52 52 53 53 54 54 55 55 56 56 56 57 57 57 58 58 59 59 60 59 59 59 60 61 61 62 63 63 64 65 65 66 67 67 68 69 69 69 70 70 70 70 71 71 72 73 73 74
53 52 52 51 48 45 43 43 44 46 48 50 51 51 51 52 52 51 51 50 50 49 48 48 48 48 47 47 48 49 51 51 51 52 52 52 52 53 54 54 54 54 54 55 55 56 56 56 57 57 57 58 58 59 60 60 59 59 60 60 61 61 62 62 63 63 64 65 65 66 66 66 67 67 68 68 69 69 70 70 70 71 71 72 72
54 54 54 54 53 50 47 44 44 44 46 48 49 49 50 50 50 50 50 50 49 49 48 48 48 48 47 47 48 49 49 50 51 51 52 52 52 53 54 54 54 54 55 55 55 55 55 56 56 57 57 58 58 59 59 59 59 59 59 59 59 60 60 61 61 62 63 63 63 63 64 64 64 65 65 66 67 68 68 69 69 70 70 71 71
52 53 54 55 55 55 54 51 48 47 46 47 47 48 48 48 48 48 48 48 48 48 47 47 47 47 46 46 46 47 47 48 49 49 50 50 50 51 53 53 54 54 55 55 55 55 55 55 55 56 56 57 58 58 58 57 57 57 57 57 58 58 58 59 60 60 61 61 61 62 62 63 63 64 64 65 66 67 67 68 69 69 70 70 71
48 49 50 51 52 53 54 54 54 54 52 50 49 48 48 48 47 47 47 46 46 47 47 47 46 46 47 47 47 47 48 48 49 49 49 49 49 50 51 52 52 53 53 54 54 54 54 54 54 55 55 55 56 57 56 55 55 56 56 57 57 58 59 59 60 60 61 61 62 63 63 63 64 65 65 66 67 68 68 68 68 69 69 70 70
51 50 50 50 49 50 51 52 54 55 55 54 54 53 51 50 50 50 49 49 49 49 50 50 50 50 51 51 52 52 52 53 53 53 52 51 51 51 51 51 51 52 52 52 53 53 53 54 54 54 54 55 56 56 56 55 56 57 58 58 59 60 60 61 62 62 63 63 64 64 65 65 66 66 67 67 67 67 67 67 68 68 69 70 70
Wind_Direction
239 240 242 244 244 245 245 243 240 239 237 236 235 233 231 230 229 228 226 224 226 228 227 224 226 233 240 245 247 240 234 231 230 229 232 242 253 258 259 261 266 272 273 271 271 273 275 274 274 273 274 276 279 287 294 300 305 305 302 304 307 302 299 304 308 310 309 301 302 308 307 305 309 313 317 318 315 314 312 315 320 324 330 334 336
238 239 240 243 243 244 246 245 244 243 241 240 239 238 237 234 232 231 231 230 231 234 236 234 231 232 236 241 248 251 249 243 238 233 232 237 247 253 257 262 266 270 277 283 281 277 275 275 277 275 275 277 279 285 290 292 297 300 304 310 310 301 299 303 308 311 310 302 303 313 315 314 318 323 326 325 320 316 313 312 316 320 324 329 333
233 235 236 239 241 242 245 245 244 244 243 242 241 240 238 236 236 235 233 235 236 237 240 241 240 241 239 237 240 249 252 250 247 242 240 241 245 249 252 257 262 264 276 286 284 281 280 281 283 280 277 278 278 283 287 288 290 294 299 306 308 303 299 297 298 301 302 303 308 315 318 318 323 328 326 321 316 312 311 310 313 316 320 326 330
232 233 233 235 237 239 241 242 242 242 242 242 241 241 238 235 237 239 237 238 238 238 243 246 247 247 247 242 239 244 248 249 250 247 245 245 247 252 255 256 259 261 266 270 271 275 279 283 286 284 281 279 276 275 279 284 290 289 289 293 296 296 294 293 296 300 304 311 315 315 314 314 317 320 317 313 311 310 309 309 311 315 319 323 328
235 234 231 231 233 235 238 239 240 240 239 239 240 240 240 237 237 238 239 240 240 240 242 244 245 246 248 246 242 243 247 249 250 248 246 245 246 250 252 253 256 257 256 259 260 264 269 272 275 276 277 277 272 269 272 277 282 281 281 284 285 286 287 287 292 299 306 311 311 306 302 303 305 307 306 305 306 306 306 308 312 317 321 325 329
239 237 232 231 232 235 235 236 238 238 236 237 238 238 239 239 238 238 239 240 242 242 242 243 245 245 247 249 247 245 248 251 252 252 251 249 247 250 252 252 253 254 255 258 258 258 259 259 258 260 265 269 266 262 259 261 262 263 265 269 273 275 276 277 283 290 295 297 295 291 289 290 292 294 295 297 300 302 305 308 312 317 321 323 327
239 238 233 232 232 234 234 233 235 237 236 236 236 237 239 239 239 239 239 238 240 242 242 244 246 246 247 251 251 250 250 252 253 253 255 254 252 252 254 256 257 257 256 257 259 259 257 257 256 256 256 259 260 260 257 253 253 255 257 260 263 268 273 277 280 284 285 284 284 285 286 287 288 291 293 295 298 301 303 306 310 314 317 317 320
238 238 235 232 231 233 235 236 235 236 237 237 237 238 239 240 239 240 240 238 239 241 243 243 245 248 249 249 251 252 251 251 252 252 253 253 253 252 253 256 259 259 258 257 257 257 257 257 258 260 260 258 258 260 260 258 256 255 257 261 264 268 273 275 277 278 280 281 282 284 287 290 292 294 295 296 297 299 300 302 306 309 311 313 316
235 237 236 234 232 233 236 239 238 237 237 236 237 237 239 240 239 239 240 240 239 240 242 243 246 250 251 250 250 251 251 253 253 252 252 251 251 251 251 253 255 257 258 256 255 256 256 256 256 259 263 265 265 266 265 265 265 263 262 263 264 266 268 269 270 272 275 277 281 284 288 291 294 295 296 297 299 298 299 301 303 305 307 309 313
232 233 236 236 236 236 238 239 240 239 237 235 234 234 236 239 240 239 240 242 243 243 245 249 253 255 255 254 253 252 253 256 256 255 255 254 253 253 253 253 253 253 253 253 254 256 256 256 255 256 258 261 264 266 266 266 268 267 267 267 266 267 267 267 267 268 270 273 277 281 284 288 291 293 294 296 298 298 299 301 302 304 306 306 309
231 232 235 237 238 239 240 241 240 240 239 237 237 236 235 236 238 239 238 239 241 244 246 252 257 259 259 258 257 255 253 253 255 255 255 254 254 255 255 254 254 254 252 251 253 254 254 256 257 255 254 256 258 261 263 264 266 267 268 268 268 268 269 269 269 269 269 271 274 276 278 281 284 287 289 292 294 296 297 300 302 303 305 306 304
233 234 236 237 238 239 240 242 242 241 241 241 241 241 241 240 240 241 241 240 241 243 241 242 247 251 254 255 256 255 252 249 250 251 251 252 254 254 254 254 254 255 254 253 253 252 251 255 257 256 255 256 257 257 258 259 262 265 267 268 268 268 268 268 269 270 271 273 274 275 276 278 280 282 286 290 294 296 298 300 302 302 303 304 301
240 239 237 237 239 239 240 241 242 242 241 242 243 244 244 246 246 247 246 244 244 244 243 241 243 247 252 253 253 254 253 251 248 247 248 250 251 252 256 257 255 255 256 255 254 254 254 255 256 255 255 255 255 255 256 256 257 259 263 266 269 270 270 269 270 271 273 275 278 279 279 280 281 283 285 288 291 293 297 299 300 301 302 302 300
251 247 244 242 241 241 241 242 243 243 242 242 244 245 245 247 249 251 251 250 249 249 248 248 247 250 255 257 256 255 254 252 250 249 249 250 250 251 255 258 257 256 256 255 255 255 255 255 256 256 256 256 256 256 256 255 255 256 259 262 266 270 273 274 275 276 278 280 281 282 282 281 281 282 284 285 286 289 293 296 297 298 301 302 300
254 252 251 248 244 241 241 242 243 246 246 246 246 247 247 247 249 252 254 256 256 254 253 252 251 252 255 257 259 258 255 252 251 250 249 251 254 255 254 254 255 256 256 256 255 255 255 257 260 261 261 261 261 260 259 258 257 257 259 261 263 267 270 274 276 278 279 279 279 280 281 283 285 285 286 287 288 289 291 293 293 295 298 300 299
253 251 249 246 244 243 242 242 244 247 249 250 248 247 246 246 248 251 253 256 257 255 252 251 250 252 255 257 258 258 256 254 253 252 249 248 252 255 253 250 251 253 255 256 257 258 258 259 259 260 261 262 262 261 260 261 261 261 261 261 262 264 267 270 273 275 276 277 278 279 281 283 285 287 289 290 291 292 293 294 293 294 295 294 294
256 255 250 245 244 248 247 246 247 248 250 252 251 247 245 244 247 250 253 254 253 250 248 248 249 252 256 258 258 257 256 256 257 257 254 248 246 248 250 250 250 251 253 256 258 259 259 257 256 257 259 261 261 261 261 263 265 265 264 263 264 266 268 270 271 272 273 275 276 278 280 281 284 287 289 290 292 294 295 295 295 295 295 293 291
257 257 254 250 249 252 254 254 254 254 254 255 253 249 246 245 246 249 251 251 246 243 245 249 251 253 255 257 257 256 257 259 262 263 263 258 253 250 249 250 250 252 254 255 257 259 260 259 258 258 258 258 259 259 258 259 262 265 265 265 266 267 269 271 273 274 275 275 275 276 277 279 283 286 288 289 291 293 293 293 294 294 293 292 291
255 255 255 254 253 254 255 257 257 257 257 255 252 250 248 247 247 247 246 244 241 242 247 250 253 256 257 257 257 257 256 259 264 266 266 264 260 256 255 254 253 254 255 257 257 257 258 259 260 261 261 262 262 262 260 260 262 264 266 267 267 267 268 270 273 276 278 279 279 279 279 281 283 285 287 289 291 294 296 297 296 295 295 295 295
254 253 253 254 255 254 252 251 251 252 253 253 251 251 250 248 248 247 244 243 245 248 251 254 257 260 261 261 260 257 255 258 264 267 266 263 261 260 261 261 259 257 257 258 258 257 257 259 260 261 262 263 263 263 261 260 262 265 267 268 268 268 268 269 272 274 277 278 279 280 280 280 281 282 284 286 290 294 297 298 298 297 297 297 297
253 253 253 252 253 253 250 246 245 247 251 253 252 253 253 251 249 248 247 247 247 248 252 255 258 261 265 264 258 251 249 255 263 267 267 265 263 264 265 265 264 261 258 257 258 258 259 259 260 260 261 261 262 262 260 260 263 266 268 268 268 268 269 270 271 273 275 277 278 280 280 280 279 279 281 284 287 290 293 295 295 296 296 295 294
252 252 253 252 250 250 249 246 245 247 250 252 252 253 255 255 253 251 249 248 247 248 251 253 256 262 267 264 254 244 247 254 259 266 276 280 277 275 274 271 267 263 259 256 256 257 258 258 259 260 261 262 262 262 261 263 265 267 267 267 268 269 270 270 271 272 273 275 276 278 279 279 279 279 281 282 283 285 289 292 293 293 293 293 292
252 251 250 249 248 249 249 247 245 246 247 248 249 250 251 251 251 250 249 248 249 250 251 253 255 258 261 264 261 256 255 257 263 275 286 289 287 288 291 290 283 274 265 260 257 257 257 257 258 259 261 262 262 262 263 265 267 267 266 268 269 269 270 272 273 273 273 273 275 276 277 278 279 280 281 281 282 284 288 291 291 291 291 291 291
250 248 247 247 246 246 246 246 246 246 246 246 246 247 247 247 247 246 247 247 248 249 250 252 253 252 254 260 266 265 262 264 272 280 284 282 280 281 284 288 292 291 284 275 267 262 260 260 260 261 262 263 262 262 263 265 266 266 267 270 272 272 272 273 274 275 276 276 276 276 276 278 280 282 282 281 282 285 288 289 290 289 289 288 288
248 245 245 245 244 243 244 245 246 245 245 245 245 245 246 246 246 245 245 246 247 248 249 250 251 252 253 256 260 264 267 269 272 276 278 276 276 278 280 283 285 286 287 287 283 275 269 266 265 265 265 266 265 264 264 263 264 266 269 272 274 274 274 274 275 277 279 279 278 277 277 278 280 281 282 281 282 285 287 288 288 287 287 288 289
244 244 243 243 242 240 241 243 244 243 243 244 245 246 247 248 247 247 247 247 248 248 250 251 251 253 256 258 260 265 271 274 273 274 275 275 274 275 277 281 282 282 282 282 280 277 273 270 269 268 268 269 269 270 269 267 267 267 269 270 272 273 274 275 276 277 278 279 279 279 279 280 280 280 281 281 283 286 287 287 286 285 285 288 291
241 244 244 243 242 240 239 240 242 242 242 244 246 246 246 247 247 246 246 248 249 249 250 253 254 254 256 260 262 265 268 270 270 270 270 271 272 272 273 274 275 276 276 274 271 268 266 265 265 265 265 266 268 270 270 271 270 269 269 269 270 271 272 273 274 275 275 276 277 278 278 280 281 281 281 282 284 286 285 284 285 284 284 286 288
241 243 243 242 243 244 242 239 239 240 241 245 247 245 245 245 245 245 245 247 248 250 251 252 254 256 257 259 261 262 262 264 265 266 266 267 268 269 270 270 268 267 266 264 263 262 262 262 263 263 264 266 267 268 269 271 272 272 272 273 273 274 275 276 276 275 273 272 273 274 275 278 280 281 282 283 285 285 283 282 283 284 284 284 285
240 240 240 239 241 245 245 241 239 238 238 241 243 243 243 243 243 245 246 246 247 249 251 252 253 255 257 258 259 260 261 263 264 265 265 265 265 266 267 267 265 264 261 260 260 260 261 263 265 266 268 270 271 271 272 272 272 274 275 276 275 275 275 277 279 278 276 275 274 274 275 277 279 281 283 284 285 284 283 283 283 285 286 285 285
239 236 237 237 237 240 242 241 241 240 238 238 239 240 241 243 244 245 245 245 246 247 249 251 253 254 256 257 258 259 260 262 262 262 262 262 263 263 264 264 264 265 264 263 263 263 264 265 266 268 269 269 271 273 274 273 274 275 276 276 275 275 275 276 277 278 277 277 279 279 279 280 281 283 284 285 285 285 285 285 285 286 287 287 287
240 235 235 237 238 239 240 242 243 243 241 240 240 241 242 243 246 246 245 245 246 247 249 251 252 254 256 258 258 258 258 258 259 258 258 258 258 259 259 261 261 262 263 264 265 266 267 267 268 268 269 269 269 271 272 274 275 276 276 276 276 276 277 278 278 278 277 278 279 280 280 280 281 283 283 283 284 285 286 286 287 287 287 288 288
243 236 233 234 236 238 241 243 243 242 242 241 241 241 242 243 244 245 245 245 246 247 249 251 252 254 256 258 258 258 257 256 257 258 257 257 257 257 257 258 258 259 261 262 264 266 267 268 269 270 270 271 271 271 272 273 274 274 274 275 276 277 277 277 276 276 276 277 278 278 278 279 281 281 281 281 283 284 284 285 285 286 287 287 288
251 244 236 233 233 236 239 242 242 241 240 240 240 240 241 242 243 244 245 246 247 248 249 250 252 253 255 256 257 258 257 256 256 257 258 259 259 258 258 258 259 260 261 262 264 266 267 269 270 271 272 273 273 273 273 274 273 273 273 274 275 276 277 276 275 275 276 276 277 277 278 279 280 280 281 281 282 282 282 283 284 284 285 285 286
254 252 246 240 237 238 240 242 244 243 242 242 242 242 243 243 244 245 246 246 247 248 249 249 251 253 253 254 255 256 257 257 256 256 258 259 260 260 260 260 260 261 262 263 265 266 268 270 271 272 273 274 274 275 275 275 275 275 275 276 276 276 275 275 275 276 276 277 277 277 278 278 279 280 281 281 281 281 282 282 283 283 283 284 284
250 251 250 246 243 243 244 246 247 248 247 244 243 244 245 246 247 248 249 250 250 251 251 252 253 254 254 255 256 256 256 256 256 257 258 259 259 260 261 262 262 263 264 265 266 267 269 271 272 273 274 275 275 276 276 276 276 276 276 277 277 277 277 277 277 276 276 276 277 277 277 278 279 280 280 280 281 281 282 283 283 283 283 283 283
244 245 246 246 244 245 246 247 247 249 249 248 246 245 245 246 248 249 250 251 252 253 253 254 255 255 256 257 258 257 257 257 257 257 258 259 260 261 262 262 264 265 266 267 269 270 271 272 272 273 273 273 273 275 276 276 277 277 276 277 276 276 277 277 277 278 277 277 277 277 278 278 279 279 280 280 281 281 282 282 282 282 282 282 283
243 241 241 242 242 243 244 245 246 247 249 249 249 248 246 246 247 249 250 251 252 253 254 254 255 256 257 258 258 258 257 258 259 259 259 259 260 261 262 263 264 265 266 267 269 270 270 270 271 271 272 272 273 274 275 275 275 275 275 275 276 276 276 276 277 278 278 278 278 279 279 279 279 279 279 280 280 281 281 282 282 282 282 282 282
245 242 241 240 240 241 243 244 244 245 246 248 249 250 249 248 248 248 249 250 251 252 253 254 255 256 257 258 259 259 259 258 258 259 259 260 260 262 263 264 265 266 267 267 268 268 269 270 271 272 274 275 275 274 274 273 273 272 272 273 274 275 276 276 277 277 278 278 278 279 279 279 280 280 280 280 280 280 280 280 281 281 281 281 281
246 245 243 242 241 241 243 244 243 243 243 243 244 246 247 248 249 249 250 250 251 252 253 254 255 256 256 257 258 260 261 260 260 260 260 261 261 262 263 265 266 266 267 268 269 269 270 271 271 272 273 274 274 274 274 274 273 273 272 271 271 272 273 274 275 276 277 277 278 278 278 279 279 280 280 280 280 281 281 281 281 281 281 281 281
248 247 247 246 245 244 244 244 245 244 243 243 243 243 243 244 245 246 247 248 249 250 251 253 254 255 256 256 257 258 259 260 262 262 262 262 262 263 264 265 266 267 267 268 269 269 270 270 271 271 272 273 273 273 272 273 273 273 273 273 273 272 272 272 273 273 274 276 277 278 278 279 279 280 280 281 281 281 281 281 282 282 282 282 282
253 253 252 250 250 249 248 248 248 248 247 247 247 248 249 249 249 248 248 248 249 250 251 252 253 254 255 256 257 257 257 258 260 261 262 263 264 264 265 266 267 267 268 268 269 269 269 270 270 271 271 271 271 271 270 271 272 272 273 273 274 274 274 274 274 274 274 275 275 276 277 277 278 279 280 281 281 282 282 282 282 282 282 283 283
257 258 257 255 253 253 253 253 253 252 251 250 250 250 252 254 255 255 254 253 253 253 254 254 254 255 255 256 257 257 257 258 259 260 261 261 262 263 263 265 266 267 267 267 267 268 269 269 270 270 270 270 270 270 270 270 271 271 272 273 273 274 275 275 276 276 276 275 275 275 275 275 275 275 276 276 277 278 279 280 281 281 282 282 282
257 258 259 259 257 256 255 256 256 256 255 254 253 252 253 254 255 256 256 256 256 256 255 255 254 254 254 255 256 257 258 259 259 260 259 259 260 261 262 264 265 265 265 265 265 266 267 267 268 268 269 269 269 270 270 270 271 271 272 273 274 275 275 275 275 276 276 276 276 275 275 275 275 275 275 274 274 274 274 274 275 275 276 277 278
257 257 258 258 258 257 257 256 256 256 256 256 255 255 255 255 256 256 257 258 258 257 255 255 254 253 252 253 255 257 258 258 259 259 259 259 260 261 261 262 263 263 264 265 265 266 266 267 268 268 269 269 270 270 270 271 271 272 273 274 275 275 276 276 276 277 277 277 277 277 277 278 278 278 277 277 276 275 275 274 274 274 273 273 274
254 255 256 257 256 255 254 253 253 253 254 254 255 255 256 256 257 257 259 260 260 259 258 257 256 255 254 254 255 256 257 257 258 259 259 260 260 261 260 260 261 263 264 266 266 266 267 267 268 269 269 269 270 270 271 271 271 272 273 274 274 275 276 276 277 278 278 278 278 279 279 280 280 280 279 279 278 278 277 277 277 276 276 276 275
252 252 253 254 254 253 251 249 248 249 250 251 252 253 255 256 257 257 258 258 258 259 259 259 258 257 256 255 255 256 256 257 257 258 259 259 260 260 260 261 261 262 264 265 266 267 267 267 268 268 269 269 270 270 271 272 272 273 274 274 275 275 276 276 277 277 277 277 278 278 279 280 280 280 280 280 280 280 279 279 279 279 278 278 278
253 252 250 250 251 252 251 249 248 248 249 250 251 251 252 253 255 256 256 257 257 257 258 258 258 257 257 256 255 255 255 256 257 258 258 259 260 261 261 262 262 263 264 265 266 267 267 268 268 269 270 270 270 271 271 272 273 274 274 275 275 276 276 276 277 277 277 278 278 279 279 279 279 279 280 280 280 280 280 280 280 280 280 280 280
255 253 251 250 249 249 249 249 249 249 250 250 251 251 251 251 252 253 254 255 256 257 257 258 258 258 258 257 256 256 256 256 257 257 258 258 259 261 262 263 264 264 265 266 266 267 268 268 269 270 271 271 272 272 272 273 274 274 275 275 276 276 277 277 277 278 278 279 280 280 280 280 280 280 281 281 281 281 281 281 281 281 281 281 281
253 253 252 251 250 249 249 248 248 248 249 250 251 251 252 252 251 251 251 252 254 255 257 257 258 259 259 259 259 259 259 260 260 260 260 260 260 261 262 262 263 264 265 266 266 267 268 268 269 269 270 271 272 272 273 274 275 276 277 277 278 278 278 279 279 280 281 281 281 281 282 282 283 283 283 283 283 283 283 283 283 283 283 283 282
253 254 253 252 251 251 250 249 248 248 249 250 251 251 250 251 251 251 251 251 251 252 254 255 257 258 259 260 261 262 263 264 264 265 264 264 264 264 263 263 264 264 264 265 266 267 267 268 269 269 270 271 272 273 274 276 277 278 278 279 279 280 280 281 281 281 282 282 283 283 284 284 285 285 285 285 285 285 284 284 284 283 283 283 282
253 254 254 253 252 252 252 252 250 249 249 251 252 252 251 251 251 252 253 253 254 254 255 257 258 260 262 263 264 265 266 266 266 266 266 266 266 266 266 266 266 267 267 267 268 268 269 270 270 271 272 272 273 274 275 276 277 277 278 278 279 280 280 281 281 282 282 283 283 284 284 285 285 285 285 285 285 285 284 284 284 284 284 284 284